This is the latest recevied weather packets stored in our database for station/object NI4CE-11. If no packets are shown the sender has not sent any weather packets the latest 10 day(s).
| Time | Temp. | Humidity | Pressure | Rain* | Wind** | Luminosity | Snow |
|---|---|---|---|---|---|---|---|
| 1777552524 | 25° C | 100% | 1013.4 hPa | 0 mm | - | - | - |
| 1777552523 | 25° C | 100% | 1013.4 hPa | 0 mm | - | - | - |
| 1777552517 | 25° C | 100% | 1013.4 hPa | 0 mm | - | - | - |
| 1777552358 | 25° C | 100% | 1013.4 hPa | 0 mm | - | - | - |
| 1777552216 | 25° C | 100% | 1013.4 hPa | 0 mm | - | - | - |
| 1777551916 | 25° C | 100% | 1013.3 hPa | 0 mm | - | - | - |
| 1777551617 | 25° C | 100% | 1013.3 hPa | 0 mm | - | - | - |
| 1777551429 | 23.89° C | 100% | 1012.8 hPa | 0 mm | - | - | - |
| 1777551317 | 23.89° C | 100% | 1013.1 hPa | 0 mm | - | - | - |
| 1777551017 | 24.44° C | 100% | 1012.8 hPa | 0 mm | - | - | - |
| 1777550717 | 23.89° C | 100% | 1012.8 hPa | 0 mm | - | - | - |
| 1777550623 | 24.44° C | 100% | 1012.9 hPa | 0 mm | - | - | - |
| 1777550417 | 23.33° C | 100% | 1013 hPa | 0 mm | - | - | - |
| 1777550117 | 24.44° C | 100% | 1012.9 hPa | 0 mm | - | - | - |
| 1777549817 | 23.89° C | 100% | 1012.8 hPa | 0 mm | - | - | - |
| 1777549517 | 24.44° C | 100% | 1012.9 hPa | 0 mm | - | - | - |
| 1777549249 | 23.33° C | 100% | 1012.8 hPa | 0 mm | - | - | - |
| 1777549217 | 23.33° C | 100% | 1012.8 hPa | 0 mm | - | - | - |
| 1777549040 | 23.89° C | 100% | 1012.9 hPa | 0 mm | - | - | - |
| 1777548917 | 23.89° C | 100% | 1012.9 hPa | 0 mm | - | - | - |
| 1777548617 | 22.78° C | 100% | 1012.8 hPa | 0 mm | - | - | - |
| 1777548317 | 22.22° C | 100% | 1012.8 hPa | 0 mm | - | - | - |
| 1777548017 | 23.33° C | 100% | 1012.6 hPa | 0 mm | - | - | - |
* Rain latest hour (hover to see other rain measurements)
** Current wind speed in m/s (hover to see current wind gust speed)